This demonstration page uses our WeatherBlox Daily Observations layout. Learn more.

Left ArrowRight Arrow

Hourly Observations for May 17, 2021

Temp ( °F °C ) Dew Point ( °F °C ) Humidity (%) Winds ( mph kmh ) Pressure ( in mb ) Visibility ( mi km ) Precip ( " mm )
12:53 am 00:53 Clear 58 14.4 55 12.8 90 90 Calm 30.17 1022 10 16 0.00 0.00
1:53 am 01:53 Clear 58 14.4 54 12.2 87 87 Calm 30.17 1022 10 16 0.00 0.00
2:53 am 02:53 Clear 56 13.3 53 11.7 90 90 Calm 30.16 1021 10 16 0.00 0.00
3:53 am 03:53 Clear 54 12.2 52 11.1 93 93 Calm 30.16 1021 10 16 0.00 0.00
4:53 am 04:53 Clear 55 12.8 52 11.1 90 90 Calm 30.16 1021 10 16 0.00 0.00
5:53 am 05:53 Clear 53 11.7 51 10.6 93 93 Calm 30.17 1022 10 16 0.00 0.00
6:53 am 06:53 Sunny 53 11.7 51 10.6 93 93 Calm 30.18 1022 10 16 0.00 0.00
7:53 am 07:53 Sunny 58 14.4 54 12.2 87 87 Calm 30.20 1023 10 16 0.00 0.00
8:53 am 08:53 Sunny 64 17.8 55 12.8 73 73 Calm 30.22 1023 10 16 0.00 0.00
9:53 am 09:53 Sunny 68 20 54 12.2 61 61 SSW 7 11 30.22 1023 10 16 0.00 0.00
10:53 am 10:53 Sunny 72 22.2 54 12.2 53 53 SW 3 6 30.23 1024 10 16 0.00 0.00
11:53 am 11:53 Mostly Sunny 74 23.3 53 11.7 48 48 S 8 13 30.22 1023 10 16 0.00 0.00
12:53 pm 12:53 Mostly Sunny 77 25 49 9.4 37 37 S 10 17 30.20 1023 10 16 0.00 0.00
1:53 pm 13:53 Partly Cloudy 78 25.6 48 8.9 35 35 SSE 12 19 30.19 1022 10 16 0.00 0.00
2:53 pm 14:53 Partly Cloudy 78 25.6 49 9.4 36 36 S 16 26 30.17 1022 10 16 0.00 0.00
3:53 pm 15:53 Mostly Cloudy 80 26.7 47 8.3 31 31 VRB 7 11 30.15 1021 10 16 0.00 0.00
4:53 pm 16:53 Mostly Sunny 79 26.1 48 8.9 34 34 S 8 13 30.14 1021 10 16 0.00 0.00
5:53 pm 17:53 Partly Cloudy 78 25.6 49 9.4 36 36 SE 9 15 30.15 1021 10 16 0.00 0.00
6:53 pm 18:53 Mostly Sunny 78 25.6 48 8.9 35 35 ESE 6 9 30.15 1021 10 16 0.00 0.00
7:53 pm 19:53 Sunny 76 24.4 51 10.6 42 42 E 7 11 30.14 1021 10 16 0.00 0.00
8:53 pm 20:53 Clear 75 23.9 51 10.6 43 43 E 5 7 30.15 1021 10 16 0.00 0.00
9:53 pm 21:53 Clear 73 22.8 51 10.6 46 46 E 7 11 30.14 1021 10 16 0.00 0.00
10:53 pm 22:53 Clear 72 22.2 51 10.6 48 48 E 6 9 30.17 1022 10 16 0.00 0.00
11:53 pm 23:53 Clear 72 22.2 52 11.1 50 50 ESE 7 11 30.17 1022 10 16 0.00 0.00

Powered by AerisWeather